Weather History for Holland, MI

Change the Weather History Date:

Tuesday, February 26, 2013

  Actual Average Record
Temperature  
Mean Temperature 33 °F 31 °F  
Max Temperature 36 °F 38 °F 60 °F (1976)
Min Temperature 30 °F 24 °F -14 °F (1963)
Degree Days  
Heating Degree Days 32 34  
Month to date heating degree days 1019 960  
Since 1 July heating degree days 4195 4434  
Cooling Degree Days 0 0  
Month to date cooling degree days 0 0  
Year to date cooling degree days 0 0  
Moisture  
Dew Point 28 °F    
Average Humidity 78    
Maximum Humidity 100    
Minimum Humidity 56    
Precipitation  
Precipitation 0.09 in 0.08 in 1.59 in (2009)
Month to date precipitation 2.08 1.65  
Year to date precipitation 5.24 3.74  
Sea Level Pressure  
Sea Level Pressure 29.67 in    
Wind  
Wind Speed 14 mph (ENE)    
Max Wind Speed 22 mph    
Max Gust Speed 35 mph    
Visibility 4 miles    
Events Fog , Rain , Snow    
T = Trace of Precipitation, MM = Missing Value Source: NWS Daily Summary

Daily Weather History Graph

Daily Weather History Graph

Search for Another Location

Airport:

Trip Planner

Search our weather history database for the weather conditions in past years. The results will help you decide how hot, cold, wet, or windy it might be!

Date:

Astronomy

Feb. 26, 2013 Rise Set
Actual Time 7:24 AM EST 6:30 PM EST
Civil Twilight 6:56 AM EST 6:58 PM EST
Nautical Twilight 6:23 AM EST 7:31 PM EST
Astronomical Twilight 5:50 AM EST 8:04 PM EST
Moon 7:49 PM EST (2/26) 7:24 AM EST (2/26)
Length of Visible Light 12h 02m
Length of Day
11h 06m
Full, 99% of the Moon is Illuminated
Feb 26
Full
Mar 4
Last Quarter
Mar 11
New
Mar 19
First Quarter
Mar 27
Full

Hourly Weather History & Observations

Time (EST) Temp. Windchill Dew Point Humidity Pressure Visibility Wind Dir Wind Speed Gust Speed Precip Events Conditions
12:53 AM 30.9 °F 22.8 °F 21.0 °F 67% 30.08 in 10.0 mi East 9.2 mph - N/A   Clear
1:53 AM 30.9 °F 25.2 °F 21.0 °F 67% 30.06 in 10.0 mi ENE 5.8 mph - N/A   Clear
2:53 AM 30.0 °F 21.7 °F 21.0 °F 69% 30.04 in 10.0 mi East 9.2 mph - N/A   Clear
3:53 AM 30.9 °F 22.2 °F 21.0 °F 67% 30.01 in 10.0 mi ENE 10.4 mph - N/A   Clear
4:53 AM 30.9 °F 21.7 °F 19.9 °F 64% 29.99 in 10.0 mi ENE 11.5 mph 19.6 mph N/A   Clear
5:53 AM 30.9 °F 21.2 °F 19.9 °F 64% 29.95 in 10.0 mi ENE 12.7 mph 19.6 mph N/A   Clear
6:53 AM 30.9 °F 21.2 °F 19.9 °F 64% 29.94 in 10.0 mi East 12.7 mph 20.7 mph N/A   Clear
7:53 AM 32.0 °F 22.1 °F 21.0 °F 64% 29.91 in 10.0 mi ENE 13.8 mph 21.9 mph N/A   Clear
8:53 AM 32.0 °F 20.8 °F 21.0 °F 64% 29.91 in 10.0 mi East 17.3 mph 23.0 mph N/A   Clear
9:53 AM 33.1 °F 21.9 °F 21.0 °F 61% 29.85 in 10.0 mi ENE 18.4 mph 27.6 mph N/A   Clear
10:53 AM 35.1 °F 24.5 °F 21.0 °F 57% 29.78 in 10.0 mi ENE 18.4 mph 27.6 mph N/A   Scattered Clouds
11:53 AM 36.0 °F 26.7 °F 21.9 °F 57% 29.74 in 10.0 mi ENE 15.0 mph 27.6 mph N/A   Scattered Clouds
12:53 PM 36.0 °F 26.0 °F 23.0 °F 59% 29.70 in 10.0 mi ENE 17.3 mph 27.6 mph N/A   Overcast
1:53 PM 36.0 °F 25.3 °F 24.1 °F 62% 29.65 in 9.0 mi ENE 19.6 mph 27.6 mph 0.00 in Rain Light Rain
2:26 PM 35.6 °F 24.8 °F 28.4 °F 75% 29.61 in 5.0 mi ENE 19.6 mph 29.9 mph 0.03 in Rain Light Freezing Rain
2:53 PM 35.1 °F 25.2 °F 30.9 °F 85% 29.63 in 4.0 mi ENE 16.1 mph 27.6 mph 0.06 in Rain Light Freezing Rain
3:17 PM 35.6 °F 25.5 °F 30.2 °F 81% 29.61 in 4.0 mi ENE 17.3 mph 27.6 mph 0.03 in Rain Light Freezing Rain
3:41 PM 35.6 °F 26.2 °F - N/A% 29.61 in 5.0 mi ENE 15.0 mph 28.8 mph 0.03 in Rain Light Rain
3:53 PM 35.1 °F 25.2 °F - N/A% 29.62 in 3.0 mi ENE 16.1 mph 24.2 mph 0.03 in Snow Light Snow
4:01 PM 35.6 °F 25.2 °F - N/A% 29.61 in 2.5 mi ENE 18.4 mph 24.2 mph 0.00 in Snow Light Snow
4:10 PM 35.6 °F 25.5 °F - N/A% 29.60 in 1.5 mi ENE 17.3 mph 25.3 mph 0.00 in Snow Light Snow
4:15 PM 35.6 °F 25.2 °F - N/A% 29.60 in 3.0 mi ENE 18.4 mph 25.3 mph 0.00 in Snow Light Snow
4:41 PM 35.6 °F 25.5 °F - N/A% 29.59 in 1.8 mi ENE 17.3 mph 25.3 mph 0.00 in Snow Light Snow
4:51 PM 35.6 °F 26.6 °F - N/A% 29.59 in 3.0 mi ENE 13.8 mph 26.5 mph 0.00 in Snow Light Snow
4:52 PM 35.1 °F 24.8 °F - N/A% 29.61 in 3.0 mi ENE 17.3 mph 26.5 mph 0.00 in Snow Light Snow
4:57 PM 35.6 °F 25.9 °F - N/A% 29.60 in 1.8 mi ENE 16.1 mph 26.5 mph 0.00 in Snow Light Snow
5:03 PM 35.6 °F 26.6 °F - N/A% 29.60 in 0.8 mi ENE 13.8 mph 25.3 mph 0.00 in Snow Light Snow
5:09 PM 35.6 °F 26.2 °F - N/A% 29.60 in 0.5 mi ENE 15.0 mph 24.2 mph 0.00 in Snow Snow
5:14 PM 35.6 °F 26.2 °F - N/A% 29.60 in 0.8 mi ENE 15.0 mph 24.2 mph 0.00 in Snow Light Snow
5:21 PM 33.8 °F 24.3 °F - N/A% 29.59 in 0.8 mi ENE 13.8 mph 21.9 mph 0.00 in Snow Light Snow
5:45 PM 33.8 °F 23.5 °F 33.8 °F 100% 29.60 in 0.8 mi ENE 16.1 mph 23.0 mph 0.00 in Snow Light Snow
5:53 PM 35.1 °F 25.5 °F 35.1 °F 100% 29.62 in 0.8 mi ENE 15.0 mph 23.0 mph 0.00 in Snow Light Snow
6:07 PM 33.8 °F 25.8 °F 33.8 °F 100% 29.59 in 0.5 mi ENE 10.4 mph 21.9 mph 0.00 in Fog , Snow Snow
6:34 PM 33.8 °F 25.8 °F 32.0 °F 93% 29.59 in 1.0 mi ENE 10.4 mph 20.7 mph 0.00 in Snow Light Snow
6:53 PM 34.0 °F 25.5 °F 30.9 °F 89% 29.61 in 1.2 mi ENE 11.5 mph 19.6 mph 0.00 in Snow Light Snow
7:33 PM 35.6 °F 26.6 °F 30.2 °F 81% 29.58 in 1.8 mi ENE 13.8 mph 19.6 mph 0.00 in Snow Light Snow
7:41 PM 35.6 °F 27.1 °F 30.2 °F 81% 29.59 in 2.5 mi NE 12.7 mph 24.2 mph 0.00 in Snow Light Snow
7:53 PM 35.1 °F 26.4 °F 30.9 °F 85% 29.61 in 1.5 mi NE 12.7 mph 23.0 mph 0.00 in Snow Light Snow
8:02 PM 35.6 °F 26.2 °F 30.2 °F 81% 29.59 in 1.2 mi ENE 15.0 mph 24.2 mph 0.00 in Snow Light Snow
8:30 PM 35.6 °F 27.1 °F 32.0 °F 87% 29.57 in 0.8 mi NE 12.7 mph 23.0 mph 0.00 in Snow Light Snow
8:43 PM 35.6 °F 25.9 °F 32.0 °F 87% 29.56 in 1.0 mi ENE 16.1 mph 25.3 mph 0.00 in Snow Light Snow
8:53 PM 35.1 °F 26.4 °F 32.0 °F 89% 29.59 in 1.2 mi NE 12.7 mph 20.7 mph 0.00 in Snow Light Snow
9:02 PM 35.6 °F 26.6 °F 32.0 °F 87% 29.56 in 1.8 mi NE 13.8 mph 21.9 mph 0.00 in Snow Light Snow
9:25 PM 35.6 °F 27.5 °F 32.0 °F 87% 29.55 in 1.2 mi NE 11.5 mph 24.2 mph 0.00 in Snow Light Snow
9:44 PM 35.6 °F 27.5 °F 32.0 °F 87% 29.55 in 0.8 mi NE 11.5 mph 18.4 mph 0.00 in Snow Light Snow
9:53 PM 35.1 °F 26.4 °F 30.9 °F 85% 29.57 in 0.8 mi NE 12.7 mph 19.6 mph 0.00 in Snow Light Snow
10:30 PM 35.6 °F 27.1 °F 30.2 °F 81% 29.54 in 1.2 mi NE 12.7 mph 20.7 mph 0.00 in Snow Light Snow
10:53 PM 35.1 °F 26.9 °F 30.9 °F 85% 29.55 in 1.5 mi NE 11.5 mph 18.4 mph 0.00 in Snow Light Snow
11:22 PM 35.6 °F 28.0 °F 30.2 °F 81% 29.52 in 1.2 mi NE 10.4 mph 18.4 mph 0.00 in Snow Light Snow
11:53 PM 35.1 °F 27.4 °F 30.9 °F 85% 29.53 in 1.0 mi NE 10.4 mph - 0.00 in Snow Light Snow